Brookings, OR

9:31 PM PST on February 20, 2017 (GMT -0800)
Brookings State

Weather History for KBOK - May, 2013

Change the Weather History Date:

Thursday, May 16, 2013

  Actual Average Record
Temperature  
Mean Temperature 52 °F -  
Max Temperature 55 °F 63 °F 86 °F (2008)
Min Temperature 48 °F 45 °F 40 °F (1943)
Degree Days  
Heating Degree Days 14    
Growing Degree Days 2 (Base 50)    
Moisture  
Dew Point 51 °F    
Average Humidity 97    
Maximum Humidity 100    
Minimum Humidity 86    
Precipitation  
Precipitation 0.51 in - - ()
Sea Level Pressure  
Sea Level Pressure 30.04 in    
Wind  
Wind Speed 4 mph (South)    
Max Wind Speed 9 mph    
Max Gust Speed -    
Visibility 5 miles    
Events Fog , Rain    
Averages and records for this station are not official NWS values.
T = Trace of Precipitation, MM = Missing Value Source: NWS Daily Summary

Daily Weather History Graph

Daily Weather History Graph

Search for Another Location

Airport or City:

Trip Planner

Search our weather history database for the weather conditions in past years. The results will help you decide how hot, cold, wet, or windy it might be!

Date:

Astronomy

May. 16, 2013 Rise Set
Actual Time 5:55 AM PDT 8:32 PM PDT
Civil Twilight 5:23 AM PDT 9:04 PM PDT
Nautical Twilight 4:42 AM PDT 9:44 PM PDT
Astronomical Twilight 3:57 AM PDT 10:30 PM PDT
Moon 11:36 AM PDT (5/16) 12:54 AM PDT (5/16)
Length of Visible Light 15h 41m
Length of Day
14h 37m
Waxing Crescent, 36% of the Moon is Illuminated
May 16
Waxing Crescent
May 17
First Quarter
May 24
Full
May 31
Last Quarter
Jun 8
New

Hourly Weather History & Observations

Time (PDT) Temp. Dew Point Humidity Pressure Visibility Wind Dir Wind Speed Gust Speed Precip Events Conditions
12:41 AM 53.6 °F 51.8 °F 94% 30.06 in 2.5 mi Variable 3.5 mph - 0.01 in Rain Light Rain
12:56 AM 52.9 °F 50.9 °F 93% 30.07 in 2.0 mi South 3.5 mph - 0.01 in Rain Light Rain
1:12 AM 51.8 °F 51.8 °F 100% 30.06 in 1.8 mi WSW 3.5 mph - 0.01 in Rain Light Rain
1:17 AM 51.8 °F 51.8 °F 100% 30.06 in 1.8 mi Variable 3.5 mph - 0.01 in Rain Light Rain
1:21 AM 51.8 °F 51.8 °F 100% 30.06 in 1.2 mi WSW 4.6 mph - 0.02 in Rain Light Rain
1:29 AM 51.8 °F 51.8 °F 100% 30.06 in 1.0 mi Variable 4.6 mph - 0.03 in Rain Light Rain
1:36 AM 51.8 °F 51.8 °F 100% 30.06 in 1.5 mi SE 4.6 mph - 0.05 in Rain Rain
1:56 AM 50.9 °F 50.9 °F 100% 30.06 in 1.5 mi ESE 4.6 mph - 0.07 in Rain Light Rain
2:56 AM 50.9 °F 50.9 °F 100% 30.04 in 1.2 mi SE 5.8 mph - 0.09 in Rain Rain
3:24 AM 51.8 °F 51.8 °F 100% 30.02 in 1.8 mi SSE 9.2 mph - 0.09 in Rain Rain
3:48 AM 51.8 °F 51.8 °F 100% 30.03 in 1.0 mi South 5.8 mph - 0.15 in Rain Rain
3:56 AM 52.0 °F 50.9 °F 96% 30.04 in 0.2 mi SSW 8.1 mph - 0.17 in Fog , Rain Light Rain
4:32 AM 51.8 °F 51.8 °F 100% 30.02 in 0.8 mi Calm Calm - 0.01 in   Overcast
4:35 AM 51.8 °F 51.8 °F 100% 30.02 in 1.2 mi Calm Calm - 0.01 in   Overcast
4:37 AM 51.8 °F 51.8 °F 100% 30.02 in 2.0 mi Calm Calm - 0.01 in   Overcast
4:44 AM 51.8 °F 51.8 °F 100% 30.02 in 10.0 mi Calm Calm - 0.01 in   Overcast
4:56 AM 52.0 °F 50.9 °F 96% 30.03 in 10.0 mi Calm Calm - 0.01 in   Overcast
5:38 AM 51.8 °F 51.8 °F 100% 30.02 in 9.0 mi Calm Calm - 0.00 in   Overcast
5:47 AM 51.8 °F 51.8 °F 100% 30.02 in 9.0 mi Calm Calm - 0.00 in   Overcast
5:56 AM 50.9 °F 50.0 °F 97% 30.02 in 10.0 mi Calm Calm - 0.00 in   Overcast
6:07 AM 51.8 °F 50.0 °F 94% 30.02 in 10.0 mi Calm Calm - N/A   Overcast
6:16 AM 51.8 °F 50.0 °F 94% 30.02 in 9.0 mi Calm Calm - N/A   Mostly Cloudy
6:27 AM 51.8 °F 50.0 °F 94% 30.02 in 8.0 mi Calm Calm - N/A   Overcast
6:34 AM 51.8 °F 50.0 °F 94% 30.02 in 9.0 mi Calm Calm - N/A   Overcast
6:46 AM 50.0 °F 50.0 °F 100% 30.02 in 9.0 mi Calm Calm - N/A   Overcast
6:56 AM 50.9 °F 50.0 °F 97% 30.03 in 10.0 mi Calm Calm - N/A   Overcast
7:12 AM 51.8 °F 50.0 °F 94% 30.03 in 9.0 mi ESE 3.5 mph - N/A   Overcast
7:29 AM 51.8 °F 51.8 °F 100% 30.03 in 5.0 mi Variable 3.5 mph - N/A   Overcast
7:36 AM 51.8 °F 51.8 °F 100% 30.02 in 3.0 mi ESE 4.6 mph - N/A   Overcast
7:43 AM 51.8 °F 51.8 °F 100% 30.03 in 2.5 mi SE 4.6 mph - 0.00 in Rain Light Rain
7:56 AM 50.9 °F 50.9 °F 100% 30.04 in 1.5 mi ESE 3.5 mph - 0.00 in Rain Light Rain
8:06 AM 51.8 °F 51.8 °F 100% 30.03 in 2.0 mi Calm Calm - 0.01 in Rain Light Rain
8:22 AM 51.8 °F 51.8 °F 100% 30.03 in 3.0 mi SE 3.5 mph - 0.01 in Rain Light Rain
8:56 AM 52.0 °F 50.9 °F 96% 30.04 in 2.0 mi SSE 3.5 mph - 0.02 in Rain Light Rain
8:59 AM 51.8 °F 51.8 °F 100% 30.03 in 1.8 mi SSE 3.5 mph - 0.00 in Rain Light Rain
9:11 AM 51.8 °F 51.8 °F 100% 30.03 in 2.0 mi South 4.6 mph - 0.01 in Rain Light Rain
9:22 AM 51.8 °F 51.8 °F 100% 30.04 in 1.2 mi Variable 4.6 mph - 0.02 in Rain Light Rain
9:24 AM 51.8 °F 51.8 °F 100% 30.04 in 0.5 mi South 4.6 mph - 0.02 in Fog , Rain Light Rain
9:31 AM 51.8 °F 51.8 °F 100% 30.04 in 0.2 mi Variable 3.5 mph - 0.02 in Fog , Rain Light Rain
9:44 AM 51.8 °F 51.8 °F 100% 30.04 in 0.5 mi South 5.8 mph - 0.06 in Fog , Rain Heavy Rain
9:56 AM 50.9 °F 50.9 °F 100% 30.04 in 0.8 mi Variable 5.8 mph - 0.11 in Rain Rain
10:00 AM 51.8 °F 51.8 °F 100% 30.04 in 1.2 mi South 6.9 mph - 0.00 in Rain Rain
10:03 AM 51.8 °F 51.8 °F 100% 30.04 in 3.0 mi South 6.9 mph - 0.00 in Rain Light Rain
10:15 AM 51.8 °F 51.8 °F 100% 30.04 in 1.2 mi Variable 5.8 mph - 0.00 in Rain Light Rain
10:17 AM 51.8 °F 51.8 °F 100% 30.04 in 0.5 mi Calm Calm - 0.00 in Fog , Rain Light Rain
10:24 AM 51.8 °F 51.8 °F 100% 30.04 in 0.2 mi Variable 4.6 mph - 0.00 in Fog Fog
10:29 AM 51.8 °F 51.8 °F 100% 30.04 in 0.8 mi SSE 5.8 mph - 0.00 in   Overcast
10:45 AM 51.8 °F 51.8 °F 100% 30.05 in 3.0 mi South 5.8 mph - 0.01 in Rain Light Rain
10:48 AM 51.8 °F 51.8 °F 100% 30.05 in 1.8 mi Variable 5.8 mph - 0.02 in Rain Rain
10:56 AM 52.0 °F 50.9 °F 96% 30.05 in 2.0 mi South 4.6 mph - 0.02 in Rain Light Rain
11:04 AM 51.8 °F 51.8 °F 100% 30.05 in 7.0 mi South 5.8 mph - 0.00 in Rain Light Rain
11:48 AM 53.6 °F 53.6 °F 100% 30.06 in 2.5 mi SSW 5.8 mph - 0.00 in   Overcast
11:56 AM 52.9 °F 52.9 °F 100% 30.06 in 5.0 mi SSW 6.9 mph - 0.00 in   Overcast
12:56 PM 54.9 °F 52.9 °F 93% 30.06 in 8.0 mi South 8.1 mph - N/A   Overcast
1:39 PM 53.6 °F 53.6 °F 100% 30.05 in 1.8 mi Variable 6.9 mph - 0.00 in Rain Light Rain
1:45 PM 53.6 °F 53.6 °F 100% 30.06 in 1.0 mi Variable 4.6 mph - 0.00 in Rain Light Rain
1:56 PM 54.0 °F 52.9 °F 96% 30.06 in 2.0 mi Variable 4.6 mph - 0.00 in Rain Light Rain
2:03 PM 53.6 °F 51.8 °F 94% 30.06 in 7.0 mi Variable 5.8 mph - 0.00 in   Overcast
2:09 PM 53.6 °F 51.8 °F 94% 30.06 in 8.0 mi SSW 5.8 mph - 0.00 in   Overcast
2:12 PM 53.6 °F 51.8 °F 94% 30.06 in 7.0 mi SW 4.6 mph - 0.00 in Rain Light Rain
2:19 PM 53.6 °F 51.8 °F 94% 30.06 in 6.0 mi Variable 5.8 mph - 0.00 in Rain Light Rain
2:33 PM 53.6 °F 51.8 °F 94% 30.06 in 2.5 mi South 4.6 mph - 0.01 in Rain Light Rain
2:35 PM 53.6 °F 51.8 °F 94% 30.06 in 0.8 mi Variable 5.8 mph - 0.01 in Rain Light Rain
2:37 PM 53.6 °F 51.8 °F 94% 30.06 in 0.2 mi Variable 5.8 mph - 0.01 in Fog Fog
2:46 PM 53.6 °F 53.6 °F 100% 30.06 in 0.2 mi SSW 5.8 mph - 0.01 in Fog , Rain Light Rain
2:56 PM 52.9 °F 52.9 °F 100% 30.06 in 0.8 mi SSW 5.8 mph - 0.01 in   Overcast
2:58 PM 53.6 °F 53.6 °F 100% 30.06 in 1.2 mi SSW 6.9 mph - N/A   Overcast
3:02 PM 53.6 °F 53.6 °F 100% 30.06 in 2.0 mi SSW 5.8 mph - N/A   Overcast
3:12 PM 53.6 °F 51.8 °F 94% 30.06 in 7.0 mi SSW 5.8 mph - N/A   Overcast
3:30 PM 53.6 °F 53.6 °F 100% 30.06 in 8.0 mi Variable 4.6 mph - N/A   Overcast
3:56 PM 54.0 °F 50.9 °F 89% 30.06 in 10.0 mi SSE 6.9 mph - N/A   Overcast
4:12 PM 53.6 °F 51.8 °F 94% 30.05 in 10.0 mi SSE 8.1 mph - N/A   Overcast
4:56 PM 54.9 °F 50.9 °F 86% 30.05 in 10.0 mi SSE 4.6 mph - N/A   Mostly Cloudy
5:46 PM 55.4 °F 51.8 °F 88% 30.04 in 10.0 mi Variable 3.5 mph - N/A   Overcast
5:56 PM 54.9 °F 52.0 °F 90% 30.05 in 9.0 mi SW 5.8 mph - N/A   Overcast
6:56 PM 54.0 °F 52.0 °F 93% 30.04 in 10.0 mi West 3.5 mph - N/A   Overcast
7:27 PM 53.6 °F 51.8 °F 94% 30.03 in 10.0 mi NW 3.5 mph - N/A   Overcast
7:38 PM 53.6 °F 51.8 °F 94% 30.03 in 10.0 mi Calm Calm - N/A   Overcast
7:56 PM 54.9 °F 50.9 °F 86% 30.04 in 10.0 mi NW 3.5 mph - N/A   Overcast
8:19 PM 53.6 °F 50.0 °F 88% 30.03 in 10.0 mi Calm Calm - N/A   Overcast
8:56 PM 52.0 °F 50.9 °F 96% 30.04 in 10.0 mi Calm Calm - N/A   Overcast
9:09 PM 53.6 °F 51.8 °F 94% 30.04 in 9.0 mi Calm Calm - N/A   Overcast
9:42 PM 51.8 °F 51.8 °F 100% 30.05 in 6.0 mi Calm Calm - N/A   Overcast
9:56 PM 50.9 °F 50.9 °F 100% 30.06 in 6.0 mi Calm Calm - N/A   Overcast
10:56 PM 50.0 °F 48.9 °F 96% 30.06 in 9.0 mi Calm Calm - N/A   Mostly Cloudy
11:06 PM 50.0 °F 48.2 °F 94% 30.05 in 10.0 mi Calm Calm - N/A   Overcast
11:16 PM 50.0 °F 48.2 °F 94% 30.05 in 10.0 mi Calm Calm - N/A   Overcast
11:24 PM 50.0 °F 48.2 °F 94% 30.05 in 1.5 mi Calm Calm - N/A   Overcast
11:26 PM 48.2 °F 48.2 °F 100% 30.05 in 1.0 mi Calm Calm - N/A   Overcast
11:41 PM 48.2 °F 48.2 °F 100% 30.05 in 1.0 mi Calm Calm - N/A   Overcast
11:56 PM 48.9 °F 48.9 °F 100% 30.06 in 4.0 mi Calm Calm - N/A   Overcast